Temp
86 87 83 84 84 84 85 85 84 84 84 84 83 83 84 84 84 84 84 84 85 85 85 85 85 85 85 85 85 85 85 84 84 84 84 84 83 83 83 85 85 91 84
93 90 83 84 84 84 85 84 84 84 84 84 84 84 84 84 84 84 84 84 85 85 85 85 85 85 85 85 85 85 85 85 84 84 84 84 84 83 84 84 85 87 84
97 93 89 83 84 84 84 84 84 84 84 84 83 84 83 83 83 84 84 84 84 85 85 85 85 85 85 85 85 85 85 84 85 85 84 91 91 84 84 85 83 84 84
98 95 93 83 84 84 84 84 84 85 85 84 83 83 83 83 84 84 84 84 84 85 85 85 85 85 85 85 85 85 85 84 84 85 90 84 91 83 84 84 83 83 83
99 98 92 83 84 84 84 84 84 84 84 84 84 84 84 84 84 84 85 85 85 84 84 85 85 85 84 84 84 85 85 84 84 87 91 94 78 86 84 84 83 83 83
99 99 85 84 84 84 84 84 84 84 84 84 84 84 84 84 84 85 85 85 84 84 84 85 85 84 84 84 84 84 84 84 84 89 94 94 90 82 84 84 86 85 83
100 98 91 84 84 84 83 84 84 84 84 84 84 84 84 84 84 84 83 84 84 84 84 84 84 84 84 84 84 84 83 84 88 91 94 94 91 84 84 84 85 83 81
102 98 93 84 84 84 84 84 84 84 84 84 84 84 85 84 83 83 84 84 83 83 84 84 84 84 84 84 84 84 84 84 92 89 92 93 83 83 84 84 84 83 83
103 99 95 92 87 84 84 84 84 84 84 84 84 84 84 83 84 83 83 84 84 84 84 84 84 84 84 84 84 84 84 84 89 85 95 90 81 83 83 84 84 83 83
102 102 98 95 94 92 92 83 83 84 84 84 85 84 84 84 84 84 83 83 85 84 84 84 82 84 84 84 84 84 84 84 91 76 92 83 82 83 84 84 83 83 82
100 101 102 96 88 89 92 90 85 84 84 84 85 84 85 92 89 90 87 84 85 84 84 84 83 84 84 85 85 84 84 92 91 96 84 81 82 83 84 84 83 82 82
97 101 102 102 98 91 98 87 93 94 94 92 93 89 92 94 85 92 89 85 85 84 85 85 84 85 85 81 84 85 91 86 95 98 89 82 82 83 83 83 83 82 82
98 100 101 104 101 99 99 99 96 98 95 95 90 92 94 88 95 98 94 93 92 86 94 89 86 84 91 90 83 88 90 94 96 98 86 81 82 82 83 83 83 83 83
99 100 101 102 101 101 100 99 96 96 98 97 94 91 90 92 95 94 98 99 94 95 94 94 84 80 92 88 92 88 94 95 98 98 88 82 82 82 83 83 83 82 82
98 99 100 99 96 97 96 97 96 98 98 99 98 93 94 95 94 96 95 96 97 97 96 91 93 87 86 93 88 90 93 97 96 98 97 83 82 81 81 82 83 83 82
98 98 101 98 94 95 93 92 94 96 98 97 98 98 92 94 93 95 94 95 96 97 97 93 84 86 87 92 89 91 92 96 96 96 96 91 82 81 81 82 82 83 83
99 100 99 97 97 92 91 91 92 96 98 97 96 96 94 92 92 91 94 95 97 97 96 95 94 94 90 93 90 94 94 94 95 95 96 96 89 81 81 81 81 82 82
101 98 98 100 98 94 92 91 93 94 95 97 97 98 94 92 91 90 92 95 97 97 98 97 96 96 96 96 83 90 95 94 95 95 95 96 97 98 83 81 81 81 82
100 98 96 97 98 96 91 93 92 92 94 96 98 99 95 93 93 90 93 95 95 96 96 97 97 96 95 95 97 92 73 85 93 96 94 95 96 96 95 82 81 81 82
101 99 97 97 95 94 95 91 94 95 95 97 98 99 97 96 92 92 93 93 94 94 94 95 91 95 94 94 98 96 80 73 86 92 97 98 98 97 98 96 87 88 81
102 99 96 94 94 93 93 92 92 93 95 96 98 96 96 95 95 90 92 93 92 90 90 89 86 88 91 93 92 93 93 96 93 98 97 97 93 98 97 96 94 95 86
102 99 96 94 93 92 94 94 95 96 97 98 98 97 95 94 93 93 90 92 92 93 88 89 88 87 88 92 88 89 81 88 94 85 73 92 94 96 97 95 93 93 92
101 100 98 96 94 93 92 95 94 94 95 94 93 95 95 92 92 90 90 89 89 91 93 88 88 83 84 89 89 85 81 82 89 93 80 72 69 90 76 91 93 91 90
104 104 101 98 95 94 93 91 90 92 91 95 92 90 90 89 90 86 85 85 88 91 89 90 92 88 81 83 89 90 87 86 80 80 74 69 69 89 92 91 88 90 90
107 106 104 99 96 94 94 90 92 89 94 96 95 90 89 90 89 90 89 88 85 89 88 86 88 85 87 83 85 88 78 81 85 80 78 85 84 90 72 72 85 85 88
108 107 106 99 95 94 92 91 89 87 89 91 92 92 93 93 92 89 88 83 82 84 86 89 86 85 83 83 84 84 82 78 80 78 75 79 83 88 76 69 71 85 83
MSLP
1012.14 1012.86 1013.48 1013.76 1014.06 1014.19 1014.48 1014.80 1015.30 1015.61 1015.72 1016.04 1016.22 1016.46 1016.58 1016.68 1016.90 1017.02 1017.14 1017.49 1017.50 1017.54 1017.62 1017.78 1017.81 1017.86 1017.96 1018.01 1017.96 1017.94 1017.92 1017.88 1017.88 1017.84 1017.82 1017.88 1018.03 1018.12 1018.25 1018.33 1018.28 1018.32 1018.90
1011.42 1012.64 1013.51 1013.80 1014.19 1014.36 1014.59 1014.99 1015.39 1015.64 1015.86 1016.10 1016.36 1016.58 1016.70 1016.82 1017.04 1017.23 1017.34 1017.54 1017.64 1017.72 1017.82 1017.92 1018.04 1018.16 1018.18 1018.16 1018.20 1018.20 1018.18 1018.11 1018.04 1017.87 1017.73 1017.66 1018.10 1018.40 1018.54 1018.77 1018.66 1018.75 1019.22
1010.79 1012.32 1013.31 1013.90 1014.30 1014.53 1014.85 1015.14 1015.42 1015.68 1015.97 1016.20 1016.56 1016.58 1016.81 1017.02 1017.18 1017.33 1017.53 1017.65 1017.76 1017.83 1017.91 1018.02 1018.09 1018.20 1018.29 1018.28 1018.30 1018.32 1018.38 1018.34 1018.13 1017.76 1016.74 1015.76 1016.78 1018.21 1018.68 1018.87 1018.92 1019.06 1019.31
1010.60 1012.08 1012.88 1014.08 1014.40 1014.75 1014.98 1015.30 1015.49 1015.76 1016.01 1016.29 1016.67 1016.80 1016.86 1017.03 1017.25 1017.44 1017.65 1017.85 1017.94 1017.97 1018.06 1018.12 1018.18 1018.26 1018.36 1018.41 1018.43 1018.34 1018.36 1018.35 1018.23 1017.79 1016.03 1014.96 1016.11 1017.68 1018.60 1018.99 1019.22 1019.28 1019.50
1010.64 1011.68 1012.91 1014.21 1014.57 1014.88 1015.23 1015.42 1015.66 1015.86 1016.08 1016.37 1016.60 1016.81 1016.94 1017.13 1017.35 1017.50 1017.70 1017.88 1017.98 1018.05 1018.12 1018.14 1018.14 1018.20 1018.36 1018.45 1018.46 1018.44 1018.40 1018.34 1018.17 1017.74 1016.59 1015.57 1015.39 1016.92 1018.27 1019.07 1019.36 1019.62 1019.80
1010.72 1011.48 1013.66 1014.33 1014.70 1015.06 1015.36 1015.57 1015.79 1016.00 1016.27 1016.51 1016.72 1016.88 1017.02 1017.20 1017.40 1017.62 1017.76 1017.89 1017.98 1018.05 1018.13 1018.11 1018.11 1018.24 1018.36 1018.47 1018.50 1018.50 1018.42 1018.25 1018.22 1017.41 1016.47 1016.41 1016.52 1017.46 1018.08 1018.99 1019.32 1019.51 1019.91
1010.68 1011.67 1013.60 1014.47 1014.87 1015.17 1015.50 1015.69 1015.89 1016.12 1016.32 1016.50 1016.70 1016.83 1017.02 1017.20 1017.40 1017.66 1017.81 1017.88 1017.95 1018.01 1018.12 1018.18 1018.25 1018.25 1018.33 1018.36 1018.42 1018.45 1018.44 1018.22 1017.86 1017.12 1016.66 1016.55 1017.13 1017.79 1018.49 1019.06 1019.35 1019.83 1019.94
1010.31 1011.78 1013.40 1014.65 1015.00 1015.34 1015.62 1015.77 1016.02 1016.26 1016.45 1016.58 1016.67 1016.83 1017.01 1017.22 1017.48 1017.68 1017.70 1017.83 1018.08 1017.99 1018.18 1018.19 1018.22 1018.27 1018.31 1018.29 1018.35 1018.36 1018.36 1018.23 1017.21 1016.96 1016.75 1016.74 1017.94 1018.33 1018.72 1019.16 1019.46 1019.79 1020.00
1010.02 1011.26 1012.90 1013.95 1014.76 1015.33 1015.57 1015.77 1016.06 1016.27 1016.50 1016.60 1016.63 1016.80 1017.05 1017.32 1017.54 1017.70 1017.84 1017.80 1017.90 1018.00 1018.08 1018.10 1018.18 1018.19 1018.22 1018.27 1018.27 1018.24 1018.22 1018.05 1017.42 1017.02 1016.28 1016.95 1017.87 1018.27 1018.87 1019.14 1019.44 1019.74 1020.03
1010.12 1010.59 1011.76 1013.09 1013.90 1014.36 1014.89 1015.79 1016.12 1016.28 1016.42 1016.52 1016.62 1016.78 1016.96 1017.09 1017.30 1017.48 1017.66 1017.71 1017.80 1017.85 1017.91 1017.95 1017.96 1018.04 1017.98 1017.91 1017.92 1017.93 1017.91 1017.70 1017.30 1017.60 1016.84 1017.21 1017.87 1018.27 1018.78 1019.14 1019.47 1019.75 1019.92
1010.30 1010.42 1010.97 1012.71 1013.92 1014.34 1014.05 1014.98 1015.85 1016.16 1016.32 1016.40 1016.38 1016.59 1016.75 1016.04 1016.37 1016.55 1016.82 1017.40 1017.64 1017.80 1017.83 1017.82 1017.77 1017.80 1017.57 1017.12 1017.21 1017.38 1017.52 1016.68 1016.44 1015.56 1016.62 1017.45 1017.77 1018.28 1018.70 1018.98 1019.26 1019.58 1019.77
1010.20 1010.28 1010.73 1011.14 1012.57 1013.92 1013.51 1014.38 1014.53 1014.65 1015.00 1015.23 1015.13 1015.81 1015.88 1015.04 1015.89 1016.02 1016.49 1016.96 1017.26 1017.46 1017.48 1017.49 1017.42 1017.30 1016.87 1016.01 1016.66 1017.06 1016.61 1016.57 1016.03 1015.49 1016.50 1017.34 1017.82 1018.37 1018.67 1018.85 1019.14 1019.35 1019.60
1010.12 1010.46 1010.83 1010.56 1011.28 1012.54 1012.57 1012.84 1013.78 1013.55 1013.88 1014.41 1015.26 1015.34 1015.13 1015.15 1015.01 1014.95 1015.36 1015.74 1016.16 1016.91 1016.25 1016.78 1016.76 1016.82 1016.14 1015.94 1016.49 1016.25 1016.04 1016.06 1015.77 1015.34 1016.71 1017.04 1017.67 1018.18 1018.56 1018.80 1019.02 1019.18 1019.40
1009.68 1010.20 1010.69 1010.85 1011.22 1011.44 1011.98 1012.58 1013.48 1013.33 1013.18 1013.49 1014.44 1015.30 1015.47 1015.12 1014.54 1014.79 1014.34 1014.46 1015.36 1015.70 1015.62 1015.66 1016.19 1016.53 1015.90 1015.94 1015.84 1016.19 1015.65 1015.73 1015.22 1015.46 1016.38 1016.88 1017.52 1017.87 1018.10 1018.39 1018.66 1018.87 1019.12
1009.45 1010.00 1010.33 1011.06 1011.70 1012.03 1012.38 1012.49 1012.83 1012.62 1013.06 1013.04 1013.50 1014.43 1014.74 1014.25 1014.49 1014.48 1014.88 1014.89 1014.79 1014.82 1014.94 1015.39 1015.22 1015.47 1015.82 1015.32 1015.65 1015.58 1015.34 1015.00 1015.26 1015.21 1015.29 1016.54 1017.15 1017.64 1017.94 1018.05 1018.26 1018.55 1018.76
1009.42 1009.92 1010.29 1011.11 1012.02 1012.32 1012.73 1013.05 1013.26 1013.01 1012.86 1013.43 1013.12 1013.40 1014.55 1014.41 1014.48 1014.40 1014.64 1014.65 1014.72 1014.67 1014.51 1014.65 1015.42 1015.45 1015.15 1014.90 1015.14 1015.02 1014.91 1014.79 1014.84 1014.89 1015.14 1015.94 1016.55 1017.03 1017.34 1017.63 1017.82 1018.08 1018.39
1009.14 1009.57 1010.20 1011.12 1011.78 1012.53 1012.93 1013.31 1013.38 1013.06 1012.95 1012.97 1013.32 1013.42 1013.89 1014.49 1014.55 1014.75 1014.44 1014.40 1014.16 1014.17 1014.52 1014.65 1014.94 1014.40 1014.53 1014.36 1014.48 1014.46 1014.54 1014.71 1014.49 1014.65 1014.73 1014.92 1015.71 1016.36 1016.60 1016.94 1017.20 1017.49 1017.85
1008.54 1009.29 1010.02 1010.60 1011.15 1012.09 1012.62 1013.01 1012.98 1012.99 1012.80 1012.65 1012.80 1012.94 1013.64 1014.14 1014.43 1014.55 1014.52 1014.04 1013.89 1013.77 1013.63 1013.96 1013.92 1013.80 1013.65 1013.59 1014.20 1014.35 1014.27 1014.74 1014.42 1014.25 1014.42 1014.40 1014.54 1014.40 1015.75 1016.08 1016.44 1016.92 1017.23
1008.54 1009.12 1009.83 1010.34 1010.73 1011.33 1012.27 1012.50 1012.76 1012.79 1012.87 1012.55 1012.36 1012.34 1012.76 1013.60 1014.01 1014.43 1014.02 1013.83 1013.83 1013.60 1013.54 1013.54 1013.29 1013.33 1013.27 1013.25 1013.11 1013.70 1014.40 1014.81 1014.43 1013.68 1013.84 1014.11 1014.14 1014.42 1014.46 1015.23 1015.73 1016.18 1016.67
1008.05 1008.83 1009.53 1010.06 1010.62 1011.07 1011.52 1012.23 1012.15 1012.19 1012.24 1012.06 1011.93 1011.85 1012.08 1012.64 1013.33 1013.72 1013.79 1013.64 1013.50 1013.50 1013.49 1013.42 1013.43 1013.30 1013.24 1013.00 1012.58 1013.05 1014.10 1014.25 1014.18 1013.30 1012.92 1013.18 1013.30 1013.64 1013.86 1013.86 1015.29 1015.63 1016.10
1007.40 1008.13 1008.89 1009.58 1010.12 1010.83 1011.15 1011.22 1011.43 1011.32 1011.33 1011.31 1011.32 1011.41 1011.71 1012.14 1012.42 1013.04 1013.43 1013.34 1013.45 1013.47 1013.37 1013.44 1013.57 1013.61 1013.67 1013.40 1012.93 1012.49 1012.92 1012.86 1012.65 1011.84 1012.27 1012.66 1013.18 1012.95 1013.44 1013.68 1013.99 1013.99 1014.62
1006.56 1007.30 1008.16 1008.96 1009.67 1010.26 1010.44 1010.57 1010.53 1010.49 1010.47 1010.45 1010.54 1010.67 1011.37 1011.81 1012.21 1012.48 1012.82 1012.81 1012.74 1012.79 1013.04 1013.26 1013.58 1013.65 1013.49 1012.96 1012.48 1012.10 1012.66 1012.31 1011.66 1012.06 1013.02 1013.09 1012.52 1011.94 1012.34 1012.90 1013.39 1013.80 1014.27
1005.66 1006.39 1007.24 1008.08 1008.90 1009.47 1009.96 1010.04 1010.20 1010.36 1010.18 1010.02 1010.16 1010.34 1010.58 1011.07 1011.60 1011.89 1012.05 1012.56 1012.59 1012.53 1012.18 1012.60 1012.96 1013.53 1013.47 1012.94 1012.55 1012.62 1012.40 1011.82 1011.54 1011.62 1013.36 1013.64 1013.27 1012.70 1012.33 1012.52 1012.86 1013.69 1014.29
1004.53 1005.37 1006.22 1007.03 1007.90 1008.72 1009.27 1009.55 1009.37 1009.32 1009.18 1009.18 1009.88 1010.06 1010.18 1010.50 1010.75 1011.10 1011.41 1011.74 1011.95 1012.14 1012.03 1012.08 1012.26 1012.41 1012.97 1012.83 1012.42 1012.12 1012.58 1012.83 1012.82 1012.58 1013.50 1012.85 1012.72 1012.68 1011.90 1012.05 1012.67 1012.94 1013.53
1003.33 1004.22 1004.99 1006.02 1006.90 1007.81 1008.22 1008.92 1008.90 1009.04 1008.72 1008.69 1008.86 1009.42 1009.59 1010.02 1010.28 1010.36 1010.48 1010.89 1011.16 1011.36 1011.36 1011.69 1011.59 1011.88 1011.99 1012.41 1012.37 1011.93 1012.04 1012.39 1012.70 1013.32 1013.24 1012.82 1012.68 1012.02 1013.00 1013.54 1012.89 1011.82 1012.71
1002.78 1003.44 1004.12 1005.16 1006.25 1007.21 1007.93 1008.37 1008.66 1008.84 1008.72 1008.49 1008.38 1008.43 1008.58 1008.90 1009.37 1009.68 1010.11 1010.33 1010.48 1010.32 1010.43 1010.54 1010.88 1011.26 1011.54 1011.71 1011.86 1011.95 1011.83 1012.47 1012.40 1012.82 1013.42 1013.42 1012.92 1012.29 1012.99 1013.01 1013.18 1012.95 1012.26
Wind_Speed
13 14 11 12 11 11 13 13 13 13 14 12 10 10 9 10 10 9 8 9 8 7 7 6 4 4 4 5 6 6 7 8 7 7 8 9 8 7 7 8 11 14 11
21 17 13 12 12 12 12 12 14 13 13 12 10 9 8 8 8 6 5 5 6 6 6 4 5 5 5 4 4 5 5 5 7 7 9 12 10 6 4 2 7 15 9
20 18 15 13 13 12 12 12 13 13 13 12 10 8 7 7 6 4 3 2 2 3 3 3 4 5 5 5 5 4 4 4 4 8 15 13 15 9 4 6 13 13 11
19 17 16 13 13 14 13 12 12 12 12 11 9 8 6 5 5 4 2 1 1 2 3 2 3 4 5 5 5 4 3 3 5 9 13 10 12 16 7 7 8 9 9
19 17 18 14 14 13 12 12 12 11 10 9 8 7 5 4 4 3 2 2 1 1 2 2 2 3 5 5 5 4 3 3 7 11 13 10 9 18 14 9 8 7 7
16 16 20 14 14 13 12 11 11 11 10 9 8 6 5 4 4 4 4 3 3 1 1 0 2 3 3 3 4 4 2 3 7 9 5 6 9 13 15 10 7 8 9
16 19 16 13 13 13 12 11 10 10 9 8 8 6 5 5 5 4 2 3 2 3 1 2 1 1 2 2 2 2 2 7 6 11 1 2 11 12 13 9 8 8 8
15 17 16 13 13 12 11 11 9 8 7 7 8 7 5 3 4 3 3 3 3 5 3 2 1 1 2 2 3 2 3 7 8 7 6 4 12 10 12 9 8 7 7
14 18 15 14 12 12 11 10 9 7 7 8 7 6 5 4 4 4 3 4 5 5 4 3 2 3 3 3 5 4 4 8 11 1 3 6 15 12 8 9 9 9 8
11 14 17 12 14 12 13 10 8 8 8 7 6 6 5 5 8 9 9 9 6 4 3 2 3 4 5 6 6 6 7 11 10 2 5 9 14 13 10 9 9 9 9
9 11 13 16 5 9 4 14 12 9 6 8 9 9 7 10 12 14 12 12 7 5 4 5 7 7 8 13 11 10 9 8 6 6 9 14 14 11 9 10 9 9 8
12 10 9 17 16 11 11 13 10 12 10 10 10 11 9 7 4 8 12 13 10 8 8 10 10 9 13 2 7 10 5 8 4 6 9 15 12 8 9 9 9 9 10
13 9 10 9 14 15 12 9 4 6 6 8 5 5 10 3 7 7 8 9 6 11 8 11 10 6 7 2 6 4 1 1 5 4 11 15 12 9 9 9 10 11 11
14 13 12 8 7 7 7 6 9 10 7 7 10 8 7 6 4 5 4 3 6 4 4 4 4 7 7 5 3 2 8 4 3 1 10 14 12 10 11 10 12 13 12
11 11 11 11 7 7 5 6 6 5 4 6 7 11 9 7 6 5 5 5 4 6 6 4 4 3 7 7 2 5 9 4 6 4 2 15 13 10 10 10 11 13 14
10 11 11 11 11 9 8 6 6 7 5 7 6 8 11 7 6 7 6 7 6 6 5 5 4 4 3 4 11 5 7 5 5 5 3 9 16 14 13 12 14 15 15
11 12 11 11 12 11 10 9 8 7 8 7 8 8 10 10 8 8 7 7 7 7 5 4 5 8 5 3 7 5 6 6 6 6 5 6 11 16 16 16 14 16 16
11 10 11 11 13 13 12 10 9 8 8 7 8 8 11 11 10 9 9 8 8 8 7 7 8 7 5 5 5 5 8 5 5 5 7 6 6 8 15 18 16 16 16
11 12 11 11 11 13 12 10 10 9 9 9 9 9 11 12 13 11 9 10 8 8 8 8 8 7 6 8 8 8 5 17 11 10 8 8 8 6 5 19 18 17 18
15 13 13 11 11 10 9 9 9 9 9 10 9 9 11 11 13 11 11 10 8 9 9 9 6 8 8 8 10 3 11 11 14 5 7 9 10 11 10 7 10 10 17
14 15 14 14 11 10 10 10 10 10 10 10 10 11 10 10 12 11 11 11 10 10 9 6 4 7 10 10 12 10 10 9 15 9 9 5 6 10 7 9 7 7 11
16 16 16 15 14 13 11 10 9 9 10 10 10 10 12 12 12 11 11 11 12 11 13 10 8 9 8 10 10 8 8 10 11 3 1 11 14 8 9 9 6 6 3
17 17 16 15 14 14 14 10 10 10 10 9 9 8 11 12 13 12 11 11 11 10 11 10 11 12 11 10 11 6 7 10 9 4 5 4 14 12 5 14 9 6 6
16 16 15 15 15 14 14 13 13 12 12 11 10 7 9 9 13 12 11 11 12 12 12 12 10 11 11 11 9 8 10 9 10 11 2 1 6 17 8 5 8 10 9
14 13 14 14 14 14 13 15 12 14 13 11 10 12 12 10 13 15 14 14 13 13 13 12 12 9 8 9 11 11 8 11 10 10 11 10 9 6 8 11 16 7 9
10 10 11 12 10 11 12 13 13 14 12 11 11 10 12 11 12 14 15 12 12 13 15 13 14 13 13 11 11 10 9 6 7 5 8 10 11 7 2 1 7 7 6
Wind_Direction
139 140 148 147 136 131 145 151 154 152 144 146 144 141 138 128 127 121 114 109 108 115 132 121 89 94 93 79 78 90 95 109 109 105 114 111 105 102 117 142 170 103 106
145 150 150 144 136 128 140 153 153 152 151 150 158 156 154 146 142 127 105 96 91 100 112 98 91 80 66 62 73 106 113 120 136 144 148 137 127 132 132 41 262 111 112
136 139 156 145 141 135 142 151 154 154 158 153 162 166 168 161 155 150 137 96 54 68 64 63 68 72 68 60 58 87 122 150 178 192 201 174 135 145 132 89 108 127 129
137 145 150 149 146 145 141 146 155 156 157 160 158 163 168 162 155 171 169 166 30 11 22 24 43 45 53 56 62 80 110 168 208 236 256 190 144 142 140 115 104 110 110
139 158 131 153 150 148 145 143 148 148 153 159 162 163 167 172 178 189 207 212 256 305 354 3 43 49 43 46 52 63 75 176 212 233 246 301 80 138 140 142 141 141 174
144 145 134 152 152 153 150 151 149 148 154 162 171 177 180 194 205 212 226 222 233 219 254 355 51 46 39 44 55 67 56 285 269 248 204 218 69 139 136 159 174 153 160
145 123 146 153 156 157 159 164 161 160 164 174 181 188 197 213 230 251 238 235 237 159 158 77 54 51 34 30 33 31 347 293 294 283 217 236 110 126 141 162 156 163 151
147 127 140 151 162 166 168 174 174 176 184 198 204 195 213 217 227 209 204 149 157 120 110 101 101 341 334 329 315 304 293 295 276 307 210 217 125 142 141 170 171 168 161
148 139 148 162 166 171 178 187 179 188 202 214 217 185 197 193 211 195 190 163 140 133 152 178 204 256 274 284 291 281 271 274 280 167 223 143 140 131 158 172 176 181 182
154 157 152 164 171 184 165 178 183 193 204 208 220 217 198 218 203 199 199 186 163 164 171 96 310 256 253 247 230 237 253 261 266 308 212 129 136 147 169 187 186 196 190
172 166 162 152 188 203 267 165 177 196 199 219 217 209 206 225 181 174 133 141 151 173 203 217 229 245 245 237 218 225 228 241 234 237 103 130 133 152 181 193 199 198 201
179 171 199 155 161 182 206 134 192 181 199 200 200 174 215 234 107 88 143 157 169 197 226 224 233 235 247 93 226 217 224 239 177 287 104 122 124 160 192 199 200 202 199
177 186 197 193 159 163 226 173 146 217 187 155 237 183 254 174 223 195 168 179 189 192 235 192 206 233 270 151 188 249 300 270 268 225 122 116 134 164 191 206 202 207 209
176 188 182 207 174 218 156 189 161 236 174 192 183 196 245 262 218 279 224 200 156 211 245 222 179 199 234 193 245 272 269 326 263 237 126 137 152 171 188 202 202 208 216
174 186 186 176 197 196 203 183 263 220 200 219 171 177 218 234 225 208 248 249 250 204 205 197 264 262 184 237 299 213 256 226 219 234 181 150 162 181 195 214 222 217 219
173 179 187 179 179 206 204 228 208 248 212 231 237 195 198 245 233 242 225 231 230 238 245 211 79 290 258 256 200 220 247 244 256 289 199 174 174 189 207 216 226 222 220
168 175 182 192 182 198 204 204 224 231 223 220 224 236 194 210 232 250 237 232 231 224 252 279 260 238 245 256 325 213 247 226 267 198 234 236 177 194 203 215 220 220 219
197 180 184 188 184 187 199 206 228 222 247 226 225 222 207 221 235 214 245 239 233 242 222 227 239 243 261 274 173 274 192 235 240 218 210 224 217 217 195 203 201 211 220
198 169 192 193 200 187 197 210 216 230 230 240 235 226 201 212 227 228 240 239 244 243 248 253 242 245 260 255 245 206 63 315 192 205 217 243 240 257 224 185 194 200 213
178 194 193 202 211 202 198 209 223 223 225 232 236 235 223 210 213 227 233 251 245 236 246 250 266 289 308 294 295 285 163 197 300 249 221 219 232 209 225 199 181 202 211
197 192 203 203 204 207 207 213 214 228 226 228 231 231 232 226 223 203 236 232 232 253 250 272 271 220 252 272 271 294 308 254 222 203 221 223 273 240 239 239 205 239 192
207 205 203 213 203 210 218 220 233 227 232 233 233 228 216 230 230 238 222 237 230 229 219 232 251 275 269 258 257 259 277 284 287 89 44 256 223 234 223 210 232 220 197
213 210 210 205 215 212 223 223 232 241 255 240 241 242 221 213 223 225 235 226 253 246 252 208 214 220 251 262 274 226 262 275 272 300 102 96 346 287 59 265 179 211 233
217 210 214 205 208 216 216 230 244 236 236 239 228 240 228 213 221 215 219 228 225 243 244 247 235 232 210 250 266 224 234 255 277 292 17 233 205 256 255 249 199 199 192
205 212 204 199 207 213 213 224 233 240 251 250 236 239 228 224 230 224 226 224 222 226 234 248 249 221 234 231 246 258 203 222 214 236 265 261 211 234 47 350 331 172 174
197 206 198 183 191 208 219 231 228 257 274 269 261 248 239 233 236 231 229 228 237 232 232 228 227 235 234 231 239 248 262 248 254 236 248 262 276 258 224 149 310 273 130